Location: Mohawk View
(42.7837°N, 73.7885°W)
Time: 20:10:01
(UTC+00:00)

deb Kosmos-2237 - Visible Passes

Search period start: 22 January 2022 00:00
Search period end: 01 February 2022 00:00
Orbit: 851 x 1103 km, 71.0° (Epoch: 22 January)

Date Brightness Start Highest point End Pass type
(mag) Time Alt. Az. Time Alt. Az. Time Alt. Az.
22 Jan ? 00:58:48 10° S 01:00:19 18° S 01:00:19 18° S visible
22 Jan ? 08:24:16 10° NNE 08:25:30 11° NNE 08:26:44 10° NE visible
22 Jan ? 10:08:19 10° NNW 10:14:27 46° ENE 10:20:11 10° SE visible
22 Jan ? 23:40:23 10° SE 23:42:28 16° SE 23:42:28 16° SE visible
23 Jan ? 01:24:41 10° SSW 01:27:15 24° SSW 01:27:15 24° SSW visible
23 Jan ? 08:49:09 12° N 08:52:28 17° NE 08:56:25 10° E visible
23 Jan ? 10:34:13 10° NNW 10:40:37 84° ENE 10:46:34 10° SSE visible
24 Jan ? 00:04:34 10° S 00:09:26 35° SE 00:09:26 35° SE visible
24 Jan ? 01:51:18 10° SW 01:54:13 25° WSW 01:54:13 25° WSW visible
24 Jan ? 09:15:10 16° N 09:19:09 29° NE 09:24:18 10° ESE visible
24 Jan ? 11:00:25 10° NNW 11:06:30 52° WSW 11:12:11 10° S visible
24 Jan ? 22:48:55 10° ESE 22:50:54 11° E 22:51:37 11° E visible
25 Jan ? 00:29:48 10° SSW 00:36:24 69° SE 00:36:24 69° SE visible
25 Jan ? 02:18:40 10° WSW 02:21:11 19° W 02:21:11 19° W visible
25 Jan ? 07:56:34 11° NE 07:56:43 11° NE 07:58:36 10° NE visible
25 Jan ? 09:41:18 20° N 09:45:32 50° ENE 09:51:17 10° SE visible
25 Jan ? 11:27:06 10° NW 11:32:08 26° W 11:36:56 10° SSW visible
25 Jan ? 23:11:04 10° SSE 23:16:20 23° E 23:18:33 20° ENE visible
26 Jan ? 00:55:49 10° SSW 01:02:49 69° WNW 01:03:20 66° NW visible
26 Jan ? 02:46:59 10° W 02:48:06 13° WNW 02:48:06 13° WNW visible
26 Jan ? 08:22:50 18° NE 08:23:38 19° NE 08:27:47 10° E visible
26 Jan ? 10:07:35 23° NNW 10:11:38 88° WSW 10:17:32 10° SSE visible
26 Jan ? 23:35:28 10° S 23:41:59 43° ESE 23:45:24 26° NE visible
27 Jan ? 01:22:34 10° SW 01:29:04 40° WNW 01:30:10 38° NW visible
27 Jan ? 08:49:15 30° NE 08:50:15 31° NE 08:55:30 10° ESE visible
27 Jan ? 10:34:00 23° NW 10:37:29 46° WSW 10:43:03 10° S visible
28 Jan ? 00:00:51 10° SSW 00:07:51 77° ESE 00:12:09 25° NNE visible
28 Jan ? 01:50:05 10° WSW 01:55:35 24° NW 01:56:55 23° NNW visible
28 Jan ? 09:15:48 51° NNE 09:16:36 55° ENE 09:22:22 10° SE visible
28 Jan ? 11:00:33 18° WNW 11:03:04 23° W 11:07:36 10° SSW visible
28 Jan ? 22:41:48 10° SSE 22:47:20 26° E 22:52:47 10° NE visible
29 Jan ? 00:26:59 10° SW 00:33:55 63° WNW 00:38:44 20° NNE visible
29 Jan ? 02:18:37 10° WNW 02:22:22 15° NW 02:23:30 14° NNW visible
29 Jan ? 07:57:42 15° E 07:57:42 15° E 07:59:07 10° E visible
29 Jan ? 09:42:29 79° W 09:42:39 80° WSW 09:48:30 10° SSE visible
29 Jan ? 11:27:15 10° W 11:28:28 11° W 11:29:48 10° WSW visible
29 Jan ? 23:06:24 10° S 23:13:01 47° ESE 23:19:31 10° NE visible
30 Jan ? 00:53:50 10° WSW 01:00:13 37° NW 01:05:11 15° N visible
30 Jan ? 08:24:29 21° ESE 08:24:29 21° ESE 08:26:41 10° ESE visible
30 Jan ? 10:09:16 39° SW 10:09:16 39° SW 10:13:52 10° S visible
30 Jan ? 23:31:54 10° SSW 23:38:55 84° ESE 23:45:45 10° NNE visible
31 Jan ? 01:21:31 10° W 01:26:46 22° NW 01:31:29 11° N visible
31 Jan ? 08:51:20 23° SE 08:51:20 23° SE 08:53:26 10° SE visible
31 Jan ? 10:36:07 17° SW 10:36:07 17° SW 10:38:13 10° SW visible
